Time,TemperatureF,DewpointF,PressureIn,WindDirection,WindDirectionDegrees,WindSpeedMPH,WindSpeedGustMPH,Humidity,HourlyPrecipIn,Conditions,Clouds,dailyrainin,SoftwareType,DateUTC
2013-05-22 00:01:00,45.0,38.0,-100.00,West,280,6.0,8.0,76,-99.99,,,-99.99,,2013-05-22 07:01:00,
2013-05-22 00:10:00,44.0,38.0,-100.00,NW,305,6.0,12.0,79,-99.99,,,-99.99,,2013-05-22 07:10:00,
2013-05-22 01:02:00,44.0,38.0,-100.00,NW,305,6.0,12.0,79,-99.99,,,-99.99,,2013-05-22 08:02:00,
2013-05-22 02:01:00,45.0,39.0,-100.00,WNW,295,3.0,9.0,79,-99.99,,,-99.99,,2013-05-22 09:01:00,
2013-05-22 02:10:00,45.0,39.0,-100.00,North,360,2.0,3.0,79,-99.99,,,-99.99,,2013-05-22 09:10:00,
2013-05-22 02:11:00,45.0,39.0,-100.00,WNW,295,3.0,9.0,79,-99.99,,,-99.99,,2013-05-22 09:11:00,
2013-05-22 03:02:00,45.0,39.0,-100.00,North,360,2.0,3.0,79,-99.99,,,-99.99,,2013-05-22 10:02:00,
2013-05-22 04:02:00,46.0,39.0,-100.00,WNW,295,1.0,3.0,76,-99.99,,,-99.99,,2013-05-22 11:02:00,
2013-05-22 04:11:00,46.0,39.0,-100.00,WNW,295,1.0,3.0,76,-99.99,,,-99.99,,2013-05-22 11:11:00,
2013-05-22 05:02:00,45.0,41.0,-100.00,WSW,255,0.0,3.0,85,-99.99,,,-99.99,,2013-05-22 12:02:00,
2013-05-22 05:10:00,44.0,41.0,-100.00,North,350,0.0,2.0,89,-99.99,,,-99.99,,2013-05-22 12:10:00,
2013-05-22 06:01:00,44.0,41.0,-100.00,North,350,0.0,2.0,89,-99.99,,,-99.99,,2013-05-22 13:01:00,
2013-05-22 07:02:00,44.0,41.0,-100.00,NW,315,2.0,5.0,89,-99.99,,,-99.99,,2013-05-22 14:02:00,
2013-05-22 07:10:00,43.0,41.0,-100.00,NNW,340,2.0,5.0,92,-99.99,,,-99.99,,2013-05-22 14:10:00,
2013-05-22 07:11:00,44.0,41.0,-100.00,NW,315,2.0,5.0,89,-99.99,,,-99.99,,2013-05-22 14:11:00,
2013-05-22 08:01:00,43.0,41.0,-100.00,NNW,340,2.0,5.0,92,-99.99,,,-99.99,,2013-05-22 15:01:00,
2013-05-22 09:20:00,44.0,41.0,-100.00,West,265,3.0,10.0,89,-99.99,,,-99.99,,2013-05-22 16:20:00,
2013-05-22 10:02:00,44.0,41.0,-100.00,West,265,3.0,10.0,89,-99.99,,,-99.99,,2013-05-22 17:02:00,
2013-05-22 10:10:00,46.0,41.0,-100.00,West,270,3.0,6.0,82,-99.99,,,-99.99,,2013-05-22 17:10:00,
2013-05-22 10:11:00,44.0,41.0,-100.00,West,265,3.0,10.0,89,-99.99,,,-99.99,,2013-05-22 17:11:00,
2013-05-22 11:02:00,46.0,41.0,-100.00,West,270,3.0,6.0,82,-99.99,,,-99.99,,2013-05-22 18:02:00,
2013-05-22 12:02:00,49.0,42.0,-100.00,North,360,1.0,3.0,76,-99.99,,,-99.99,,2013-05-22 19:02:00,
2013-05-22 12:11:00,49.0,42.0,-100.00,North,360,1.0,3.0,76,-99.99,,,-99.99,,2013-05-22 19:11:00,
2013-05-22 13:02:00,50.0,43.0,-100.00,East,85,0.0,6.0,76,-99.99,,,-99.99,,2013-05-22 20:02:00,
2013-05-22 13:10:00,49.0,41.0,-100.00,SE,130,7.0,15.0,73,-99.99,,,-99.99,,2013-05-22 20:10:00,
2013-05-22 14:01:00,49.0,41.0,-100.00,SE,130,7.0,15.0,73,-99.99,,,-99.99,,2013-05-22 21:01:00,
2013-05-22 15:03:00,50.0,38.0,-100.00,SSE,160,12.0,17.0,63,-99.99,,,-99.99,,2013-05-22 22:03:00,
2013-05-22 15:10:00,51.0,37.0,-100.00,SSE,155,9.0,15.0,58,-99.99,,,-99.99,,2013-05-22 22:10:00,
2013-05-22 15:12:00,50.0,38.0,-100.00,SSE,160,12.0,17.0,63,-99.99,,,-99.99,,2013-05-22 22:12:00,
2013-05-22 16:02:00,51.0,37.0,-100.00,SSE,155,9.0,15.0,58,-99.99,,,-99.99,,2013-05-22 23:02:00,
2013-05-22 17:01:00,50.0,39.0,-100.00,SE,135,2.0,7.0,65,-99.99,,,-99.99,,2013-05-23 00:01:00,
2013-05-22 17:11:00,50.0,39.0,-100.00,SE,135,2.0,7.0,65,-99.99,,,-99.99,,2013-05-23 00:11:00,
2013-05-22 18:00:00,51.0,38.0,-100.00,NW,305,1.0,2.0,60,-99.99,,,-99.99,,2013-05-23 01:00:00,
2013-05-22 18:01:00,52.0,38.0,-100.00,WNW,295,2.0,8.0,58,-99.99,,,-99.99,,2013-05-23 01:01:00,
2013-05-22 20:01:00,46.0,39.0,-100.00,WNW,295,2.0,6.0,76,-99.99,,,-99.99,,2013-05-23 03:01:00,
2013-05-22 20:10:00,45.0,39.0,-100.00,NW,310,1.0,6.0,79,-99.99,,,-99.99,,2013-05-23 03:10:00,
2013-05-22 20:11:00,46.0,39.0,-100.00,WNW,295,2.0,6.0,76,-99.99,,,-99.99,,2013-05-23 03:11:00,
2013-05-22 21:03:00,45.0,39.0,-100.00,NW,310,1.0,6.0,79,-99.99,,,-99.99,,2013-05-23 04:03:00,
2013-05-22 22:02:00,44.0,40.0,-100.00,West,260,1.0,3.0,85,-99.99,,,-99.99,,2013-05-23 05:02:00,
2013-05-22 22:11:00,44.0,40.0,-100.00,West,260,1.0,3.0,85,-99.99,,,-99.99,,2013-05-23 05:11:00,
2013-05-22 22:20:00,43.0,40.0,-100.00,NNE,25,1.0,2.0,89,-99.99,,,-99.99,,2013-05-23 05:20:00,
2013-05-22 23:02:00,43.0,40.0,-100.00,NNE,25,1.0,2.0,89,-99.99,,,-99.99,,2013-05-23 06:02:00,
2013-05-22 23:10:00,43.0,40.0,-100.00,NNW,335,1.0,6.0,89,-99.99,,,-99.99,,2013-05-23 06:10:00,
2013-05-22 23:12:00,43.0,40.0,-100.00,NNE,25,1.0,2.0,89,-99.99,,,-99.99,,2013-05-23 06:12:00,